Stündliche Wetter Holovy

Heute, 16 Juni, Mittwoch

Zeit Temperatur Niederschläge Wind Luftdruck Luftfeuchtigkeit
00:00 +13°C° 0 mm 3 m/S 688 mmHg 100%
01:00 +13°C° 0 mm 3 m/S 688 mmHg 100%
02:00 +13°C° 0 mm 1 m/S 688 mmHg 100%
03:00 +12°C° 0 mm 2 m/S 688 mmHg 100%
04:00 +12°C° 0 mm 1 m/S 687 mmHg 100%
05:00 +12°C° 0 mm 2 m/S 688 mmHg 100%
06:00 +12°C° 0 mm 2 m/S 688 mmHg 100%
07:00 +13°C° 0 mm 2 m/S 688 mmHg 100%
08:00 +14°C° 0 mm 2 m/S 689 mmHg 100%
09:00 +16°C° 0 mm 3 m/S 689 mmHg 98%
10:00 +15°C° 0 mm 4 m/S 690 mmHg 98%
11:00 +17°C° 0 mm 4 m/S 690 mmHg 99%
12:00 +17°C° 0 mm 4 m/S 690 mmHg 97%
13:00 +17°C° 0 mm 5 m/S 690 mmHg 95%
14:00 +17°C° 0 mm 5 m/S 690 mmHg 92%
15:00 +17°C° 0 mm 5 m/S 689 mmHg 92%
16:00 +17°C° 0 mm 5 m/S 689 mmHg 92%
17:00 +17°C° 0 mm 5 m/S 689 mmHg 97%
18:00 +17°C° 0 mm 5 m/S 689 mmHg 96%
19:00 +17°C° 0 mm 4 m/S 689 mmHg 99%
20:00 +16°C° 0 mm 5 m/S 689 mmHg 100%
21:00 +15°C° 0.6 mm 4 m/S 689 mmHg 100%
22:00 +14°C° 0.5 mm 4 m/S 690 mmHg 100%
23:00 +14°C° 0 mm 4 m/S 690 mmHg 100%

Morgen, 17 Juni, Donnerstag

Zeit Temperatur Niederschläge Wind Luftdruck Luftfeuchtigkeit
00:00 +14°C° 0 mm 4 m/S 690 mmHg 100%
01:00 +14°C° 0 mm 3 m/S 689 mmHg 100%
02:00 +14°C° 0 mm 3 m/S 690 mmHg 100%
03:00 +13°C° 0 mm 3 m/S 690 mmHg 100%
04:00 +13°C° 0 mm 4 m/S 690 mmHg 100%
05:00 +13°C° 0 mm 3 m/S 690 mmHg 100%
06:00 +13°C° 0 mm 3 m/S 690 mmHg 100%
07:00 +13°C° 0 mm 3 m/S 690 mmHg 100%
08:00 +13°C° 0 mm 3 m/S 691 mmHg 100%
09:00 +14°C° 0 mm 3 m/S 691 mmHg 100%
10:00 +16°C° 0 mm 3 m/S 692 mmHg 100%
11:00 +15°C° 0 mm 4 m/S 692 mmHg 100%
12:00 +17°C° 0 mm 4 m/S 692 mmHg 100%
13:00 +16°C° 0 mm 5 m/S 692 mmHg 100%
14:00 +18°C° 0 mm 4 m/S 692 mmHg 100%
15:00 +18°C° 0 mm 4 m/S 692 mmHg 100%
16:00 +19°C° 0.9 mm 4 m/S 692 mmHg 100%
17:00 +18°C° 0.4 mm 4 m/S 692 mmHg 100%
18:00 +18°C° 0.2 mm 4 m/S 692 mmHg 100%
19:00 +18°C° 0.1 mm 4 m/S 692 mmHg 100%
20:00 +17°C° 0.1 mm 3 m/S 692 mmHg 100%
21:00 +17°C° 1.8 mm 2 m/S 692 mmHg 100%
22:00 +17°C° 0.3 mm 2 m/S 692 mmHg 100%
23:00 +17°C° 0 mm 2 m/S 692 mmHg 100%

übermorgen, 18 Juni, Freitag

Zeit Temperatur Niederschläge Wind Luftdruck Luftfeuchtigkeit
00:00 +16°C° 0 mm 2 m/S 692 mmHg 100%
01:00 +16°C° 0.1 mm 1 m/S 692 mmHg 100%
02:00 +16°C° 0 mm 1 m/S 692 mmHg 100%
03:00 +15°C° 0 mm 2 m/S 691 mmHg 100%
04:00 +15°C° 0 mm 2 m/S 692 mmHg 100%
05:00 +15°C° 0 mm 2 m/S 692 mmHg 100%
06:00 +16°C° 0 mm 2 m/S 692 mmHg 100%
07:00 +16°C° 0 mm 2 m/S 692 mmHg 100%
08:00 +16°C° 0 mm 3 m/S 692 mmHg 100%
09:00 +16°C° 0 mm 3 m/S 692 mmHg 100%
10:00 +17°C° 0 mm 3 m/S 692 mmHg 100%
11:00 +17°C° 0.1 mm 3 m/S 692 mmHg 100%
12:00 +17°C° 0.1 mm 3 m/S 692 mmHg 100%
13:00 +17°C° 0.1 mm 3 m/S 692 mmHg 100%
14:00 +17°C° 0.1 mm 4 m/S 692 mmHg 100%
15:00 +17°C° 0 mm 3 m/S 692 mmHg 100%
16:00 +19°C° 0 mm 4 m/S 692 mmHg 100%
17:00 +19°C° 0 mm 4 m/S 691 mmHg 100%
18:00 +19°C° 0 mm 4 m/S 691 mmHg 100%
19:00 +18°C° 0.1 mm 4 m/S 691 mmHg 100%
20:00 +18°C° 1.3 mm 4 m/S 691 mmHg 100%
21:00 +17°C° 0.7 mm 6 m/S 691 mmHg 100%
22:00 +16°C° 0.3 mm 5 m/S 691 mmHg 100%
23:00 +17°C° 0.2 mm 4 m/S 691 mmHg 100%

19 Juni, Samstag

Zeit Temperatur Niederschläge Wind Luftdruck Luftfeuchtigkeit
00:00 +17°C° 1.1 mm 4 m/S 691 mmHg 100%
01:00 +16°C° 0.8 mm 3 m/S 691 mmHg 100%
02:00 +16°C° 0.3 mm 3 m/S 691 mmHg 100%
03:00 +16°C° 0.1 mm 3 m/S 691 mmHg 100%
04:00 +16°C° 0 mm 2 m/S 691 mmHg 100%
05:00 +14°C° 0 mm 3 m/S 691 mmHg 100%
06:00 +14°C° 0 mm 3 m/S 691 mmHg 100%
07:00 +14°C° 0 mm 3 m/S 692 mmHg 100%
08:00 +15°C° 0 mm 4 m/S 692 mmHg 100%
09:00 +15°C° 0 mm 4 m/S 692 mmHg 100%
10:00 +15°C° 0 mm 4 m/S 692 mmHg 100%
11:00 +17°C° 0 mm 4 m/S 692 mmHg 100%
12:00 +17°C° 0.6 mm 5 m/S 692 mmHg 100%
13:00 +17°C° 0.2 mm 5 m/S 692 mmHg 100%
14:00 +19°C° 0.1 mm 5 m/S 692 mmHg 92%
15:00 +19°C° 0 mm 4 m/S 692 mmHg 94%
16:00 +19°C° 0 mm 4 m/S 692 mmHg 95%
17:00 +19°C° 0.5 mm 4 m/S 692 mmHg 97%
18:00 +18°C° 0.5 mm 3 m/S 691 mmHg 100%
19:00 +18°C° 0.5 mm 3 m/S 691 mmHg 100%
20:00 +18°C° 0 mm 2 m/S 692 mmHg 100%
21:00 +18°C° 0 mm 1 m/S 691 mmHg 100%
22:00 +16°C° 0.5 mm 2 m/S 691 mmHg 100%
23:00 +16°C° 0.2 mm 1 m/S 691 mmHg 100%

20 Juni, Sonntag

Zeit Temperatur Niederschläge Wind Luftdruck Luftfeuchtigkeit
00:00 +16°C° 0.3 mm 1 m/S 691 mmHg 100%
01:00 +16°C° 2.2 mm 1 m/S 691 mmHg 100%
02:00 +16°C° 0.5 mm 1 m/S 691 mmHg 100%
03:00 +15°C° 0 mm 0 m/S 691 mmHg 100%
04:00 +15°C° 0 mm 0 m/S 691 mmHg 100%
05:00 +16°C° 0 mm 1 m/S 691 mmHg 100%
06:00 +16°C° 0 mm 1 m/S 691 mmHg 100%
07:00 +15°C° 0 mm 0 m/S 691 mmHg 100%
08:00 +16°C° 0 mm 1 m/S 691 mmHg 100%
09:00 +18°C° 0 mm 1 m/S 692 mmHg 100%
10:00 +17°C° 0 mm 2 m/S 692 mmHg 100%
11:00 +17°C° 0 mm 2 m/S 692 mmHg 100%
12:00 +18°C° 0 mm 2 m/S 692 mmHg 100%
13:00 +19°C° 0 mm 3 m/S 692 mmHg 100%
14:00 +20°C° 0 mm 3 m/S 692 mmHg 100%
15:00 +20°C° 1.2 mm 4 m/S 692 mmHg 100%
16:00 +20°C° 2.3 mm 3 m/S 691 mmHg 97%
17:00 +20°C° 0 mm 4 m/S 691 mmHg 100%
18:00 +20°C° 0 mm 3 m/S 691 mmHg 98%
19:00 +19°C° 0 mm 3 m/S 691 mmHg 100%
20:00 +19°C° 0 mm 2 m/S 691 mmHg 100%
21:00 +19°C° 0 mm 1 m/S 691 mmHg 100%
22:00 +18°C° 0.2 mm 1 m/S 691 mmHg 100%
23:00 +16°C° 0 mm 0 m/S 691 mmHg 100%

21 Juni, Montag

Zeit Temperatur Niederschläge Wind Luftdruck Luftfeuchtigkeit
00:00 +18°C° 0 mm 1 m/S 690 mmHg 100%
01:00 +16°C° 0 mm 1 m/S 690 mmHg 100%
02:00 +15°C° 0 mm 0 m/S 690 mmHg 100%
03:00 +16°C° 0 mm 1 m/S 690 mmHg 100%
04:00 +16°C° 0 mm 1 m/S 689 mmHg 100%
05:00 +16°C° 0 mm 1 m/S 689 mmHg 100%
06:00 +15°C° 0 mm 0 m/S 689 mmHg 100%
07:00 +16°C° 0 mm 0 m/S 690 mmHg 100%
08:00 +19°C° 0 mm 1 m/S 690 mmHg 100%
09:00 +19°C° 0 mm 1 m/S 690 mmHg 100%
10:00 +19°C° 0 mm 3 m/S 690 mmHg 100%
11:00 +19°C° 0 mm 3 m/S 690 mmHg 99%
12:00 +20°C° 0 mm 3 m/S 690 mmHg 99%
13:00 +20°C° 0 mm 3 m/S 690 mmHg 98%
14:00 +21°C° 0 mm 4 m/S 689 mmHg 98%
15:00 +21°C° 0 mm 3 m/S 689 mmHg 97%
16:00 +21°C° 0 mm 3 m/S 689 mmHg 100%
17:00 +20°C° 0 mm 3 m/S 689 mmHg 98%
18:00 +20°C° 0 mm 3 m/S 689 mmHg 99%
19:00 +20°C° 0 mm 2 m/S 688 mmHg 100%
20:00 +20°C° 0 mm 1 m/S 688 mmHg 100%
21:00 +20°C° 0 mm 1 m/S 688 mmHg 100%
22:00 +18°C° 0 mm 0 m/S 688 mmHg 100%
23:00 +19°C° 0 mm 1 m/S 688 mmHg 100%
Mehr zeigen

Wir brauchen deine Erlaubnis

Meteoprog und unser Service Anbieter werden persönliche Daten aufbewahren, so wie Cookies, Geräte Bezeichnung oder ähnliche Technologien von deinem Gerät und Prozess, so wie Persönliche Daten Inhalte und Werbungen, genauso wie social Media und den Verkehr zu analysieren.

  • Aufbewahrung und/oder Zugang zu deiner Geräte Informationen.

    Cookies, Geräte Bezeichnung oder andere Informationen, können aufbewahrt oder Zugang zu deinem Gerät erhalten, für den Grund, der oben angegeben wird.

  • Personalisierte Werbung und Inhalte, Messungen, Einblick in das Publikum und Produkt Entwicklung.

    Werbungen und Inhalte können personalisiert werden, basierend auf ein Profil. Mehr Daten können besser personalisierte Werbungen und Inhalte hinzufügen. Werbung und Inhalte können gezeigt und gemessen werden. Einblicke über das Publikum, welche die Werbung gesehen haben und den Inhalt, können abgeleitet werden. So wie Daten können genutzt werden, um es zu verbessern oder die Benutzer Erfahrung zu verbessern das System und die Software.

Wenn du “Ich stimme zu” klickst, erlaubst du uns, die Cookies zu benutzen die Geräte Bezeichnung, den Web oder ähnliche Technologien zu benutzen. Deine Settings, können in deinem Gerät bei deinem Browser geändert werden.

Für den bestimmten Zweck, berechtigten Interessen beruhen darauf, mehr als auf den Inhalt. Du kannst mehr darüber in unseren Privaten und Cookie Politik lesen.